Погода в Ткуарчале

Абхазия     42°50′49″N   41°41′15″E
темп.,
°C
ветер,
м/с
пор.,
м/с
влажн.,
%
обл.,
%
осадки,
мм/ч
давл.,
гПа
погр.,
м
14 апреля, ср
ср1400:00+5ссв119094 3.2 102316
03:00+4св21896 3.2 102113
06:00+3св21865 0.0 102116
09:00+9ю127459 0.0 1020413
12:00+14ююз22596 0.1 10191091
15:00+15ююз22517 0.3 10171223
18:00+12с117867 0.1 101824
21:00+8св32723 0.1 101928
15 апреля, чт
чт1500:00+7св336825 0.0 101939
03:00+7св446391 0.0 101955
06:00+7св445968 0.0 101952
09:00+16в123814 0.0 1017496
12:00+19ююз2236100 0.0 10161612
15:00+19зюз2242100 0.0 10151046
18:00+15сз1171100 0.1 101615
21:00+11всв117282 0.1 101814
16 апреля, пт
пт1600:00+10св217794 0.0 101821
03:00+9всв226927 0.0 101826
06:00+9св22647 0.0 101825
09:00+17ю124696 0.0 1017500
12:00+19зюз324747 0.1 10161001
15:00+17сз236068 0.4 1017447
18:00+12юз23808 0.1 1019207
21:00+8ююз129492 0.1 102248
17 апреля, сб
сб1700:00+9вюв139183 0.0 1022135
03:00+8юз1194100 0.1 102247
06:00+9вюв0293100 1.8 102259
09:00+10зюз1192100 2.2 1022247
12:00+12юв0188100 0.8 1021230
15:00+14з2281100 1.3 1020306
18:00+14ю0282100 0.3 101944
21:00+11св3380100 0.3 102044
18 апреля, вс
вс1800:00+12св3375100 0.0 101941
03:00+12св2271100 0.0 101726
06:00+12св3581100 1.2 101889
09:00+18св2358100 1.3 1017247
12:00+18в2470100 0.3 1017266
15:00+19всв1264100 0.6 1018570
18:00+16в2479100 0.6 1018109
21:00+13св338495 1.2 101955